GW2129 Weather Reports


Display with metric or nautical units.
time (UTC)temp
F
wind
direction
speed
MPH
gust
MPH
rain 1hr
in
rain 24hr
in
rain mn
in
humidity
%
barometer
mb
20260903235357 89 106 7.0 11.0 0.00 0.00 0.00 60 1011.8
20260903234856 89 110 6.0 9.0 0.00 0.00 0.00 61 1011.5
20260903234352 90 155 2.0 11.0 0.00 0.00 0.00 60 1011.6
20260903233848 90 141 3.0 7.0 0.00 0.00 0.00 60 1011.3
20260903233344 90 122 3.0 10.0 0.00 0.00 0.00 58 1011.3
20260903232843 90 105 4.0 6.0 0.00 0.00 0.00 58 1011.6
20260903232339 90 131 1.0 13.0 0.00 0.00 0.00 59 1011.6
20260903231838 91 85 6.0 11.0 0.00 0.00 0.00 59 1011.3
20260903231333 91 93 9.0 11.0 0.00 0.00 0.00 59 1011.3
20260903230829 91 62 10.0 16.0 0.00 0.00 0.00 58 1011.5
20260903230324 91 141 3.0 12.0 0.00 0.00 0.00 58 1011.5
20260903225820 93 108 7.0 20.0 0.00 0.00 0.00 55 1011.5
20260903225316 95 188 2.0 13.0 0.00 0.00 0.00 49 1011.0
20260903224812 96 127 6.0 10.0 0.00 0.00 0.00 48 1011.2
20260903224308 96 104 7.0 9.0 0.00 0.00 0.00 48 1011.1
20260903223804 96 119 5.0 9.0 0.00 0.00 0.00 47 1010.9
20260903223302 96 314 0.0 5.0 0.00 0.00 0.00 48 1010.9
20260903222757 95 232 3.0 4.0 0.00 0.00 0.00 49 1010.9
20260903222256 95 197 2.0 4.0 0.00 0.00 0.00 51 1010.8
20260903221751 93 229 1.0 2.0 0.00 0.00 0.00 52 1010.9
20260903221250 93 238 2.0 5.0 0.00 0.00 0.00 51 1011.1
20260903220748 94 206 1.0 5.0 0.00 0.00 0.00 49 1011.0
20260903220243 94 223 2.0 4.0 0.00 0.00 0.00 48 1011.1
20260903215742 94 280 2.0 7.0 0.00 0.00 0.00 49 1011.0
20260903215238 95 165 2.0 4.0 0.00 0.00 0.00 48 1011.2
20260903214735 94 151 3.0 8.0 0.00 0.00 0.00 50 1011.0
20260903214232 92 288 2.0 6.0 0.00 0.00 0.00 52 1010.9
20260903213726 92 203 7.0 8.0 0.00 0.00 0.00 53 1011.2
20260903213222 92 165 2.0 13.0 0.00 0.00 0.00 54 1011.3
20260903212718 92 139 12.0 15.0 0.00 0.00 0.00 54 1011.1
20260903212215 93 297 3.0 9.0 0.00 0.00 0.00 53 1011.2
20260903211713 95 117 4.0 9.0 0.00 0.00 0.00 47 1011.2
20260903211210 96 138 8.0 10.0 0.00 0.00 0.00 46 1011.1
20260903210706 96 135 0.0 8.0 0.00 0.00 0.00 48 1011.0
20260903210201 98 97 6.0 6.0 0.00 0.00 0.00 45 1011.0
20260903205701 99 130 2.0 3.0 0.00 0.00 0.00 42 1011.2
20260903205200 100 244 4.0 4.0 0.00 0.00 0.00 40 1011.1
20260903204655 100 264 2.0 4.0 0.00 0.00 0.00 42 1011.1
20260903204151 100 174 2.0 4.0 0.00 0.00 0.00 41 1011.5
20260903203647 100 207 0.0 2.0 0.00 0.00 0.00 42 1011.4
20260903203142 100 218 3.0 4.0 0.00 0.00 0.00 41 1011.3
20260903202636 101 312 0.0 5.0 0.00 0.00 0.00 41 1011.4
20260903202132 101 276 2.0 4.0 0.00 0.00 0.00 41 1011.8
20260903201626 102 215 2.0 6.0 0.00 0.00 0.00 40 1011.7
20260903201126 102 282 2.0 7.0 0.00 0.00 0.00 40 1012.0
20260903200621 102 206 2.0 4.0 0.00 0.00 0.00 40 1011.7
20260903200116 103 283 2.0 9.0 0.00 0.00 0.00 40 1011.9
20260903195612 102 243 3.0 6.0 0.00 0.00 0.00 40 1011.8
20260903195107 102 269 4.0 5.0 0.00 0.00 0.00 40 1011.9
20260903194602 102 251 2.0 6.0 0.00 0.00 0.00 41 1012.2
20260903194057 101 228 2.0 5.0 0.00 0.00 0.00 43 1011.8
20260903193553 102 266 3.0 6.0 0.00 0.00 0.00 43 1012.0
20260903193049 101 242 2.0 5.0 0.00 0.00 0.00 42 1012.0
20260903192545 100 256 2.0 4.0 0.00 0.00 0.00 43 1012.2
20260903192040 100 312 4.0 4.0 0.00 0.00 0.00 43 1012.3
20260903191537 99 254 2.0 6.0 0.00 0.00 0.00 45 1012.3
20260903191036 100 261 3.0 6.0 0.00 0.00 0.00 45 1012.5
20260903190536 100 166 2.0 3.0 0.00 0.00 0.00 44 1012.6
20260903190030 98 278 1.0 3.0 0.00 0.00 0.00 46 1012.5
20260903185525 99 252 3.0 6.0 0.00 0.00 0.00 45 1012.6
20260903185020 98 281 3.0 5.0 0.00 0.00 0.00 49 1013.0
20260903184512 98 229 3.0 7.0 0.00 0.00 0.00 46 1013.0
20260903184012 97 265 3.0 7.0 0.00 0.00 0.00 49 1013.2
20260903183511 97 275 2.0 5.0 0.00 0.00 0.00 50 1013.2
20260903183006 97 317 3.0 5.0 0.00 0.00 0.00 50 1013.2
20260903182504 97 246 0.0 5.0 0.00 0.00 0.00 48 1013.5
20260903182000 96 146 5.0 5.0 0.00 0.00 0.00 50 1013.3
20260903181454 97 277 0.0 9.0 0.00 0.00 0.00 51 1013.5
20260903180953 96 257 1.0 5.0 0.00 0.00 0.00 51 1013.7
20260903180449 96 272 1.0 6.0 0.00 0.00 0.00 51 1013.6
20260903175948 95 346 2.0 7.0 0.00 0.00 0.00 51 1013.8
20260903175443 95 289 3.0 9.0 0.00 0.00 0.00 52 1013.8
20260903174941 96 237 4.0 7.0 0.00 0.00 0.00 49 1013.7
20260903174437 96 229 2.0 4.0 0.00 0.00 0.00 51 1013.8
20260903173936 96 227 5.0 7.0 0.00 0.00 0.00 51 1014.0
20260903173432 96 296 3.0 8.0 0.00 0.00 0.00 52 1014.0
20260903172927 95 267 3.0 7.0 0.00 0.00 0.00 55 1014.0
20260903172422 96 309 4.0 6.0 0.00 0.00 0.00 54 1014.2
20260903171918 96 263 3.0 6.0 0.00 0.00 0.00 53 1014.2
20260903171413 96 316 2.0 4.0 0.00 0.00 0.00 53 1014.2
20260903170913 94 274 3.0 9.0 0.00 0.00 0.00 55 1014.3
20260903170408 94 245 2.0 7.0 0.00 0.00 0.00 57 1014.4
20260903165906 93 241 3.0 7.0 0.00 0.00 0.00 57 1014.2
20260903165401 94 214 6.0 6.0 0.00 0.00 0.00 56 1014.3
20260903164855 93 249 4.0 7.0 0.00 0.00 0.00 57 1014.4
20260903164351 94 346 2.0 6.0 0.00 0.00 0.00 57 1014.4
20260903163850 93 233 6.0 9.0 0.00 0.00 0.00 58 1014.4
20260903163347 94 271 5.0 6.0 0.00 0.00 0.00 59 1014.3
20260903162842 93 203 2.0 6.0 0.00 0.00 0.00 59 1014.6
20260903162339 93 271 0.0 5.0 0.00 0.00 0.00 59 1014.5
20260903161834 93 227 3.0 9.0 0.00 0.00 0.00 59 1014.5
20260903161329 93 245 2.0 6.0 0.00 0.00 0.00 60 1014.7
20260903160825 93 201 2.0 7.0 0.00 0.00 0.00 61 1014.6
20260903160324 92 215 3.0 5.0 0.00 0.00 0.00 63 1014.6
20260903155822 91 217 3.0 7.0 0.00 0.00 0.00 62 1014.4
20260903155318 91 236 2.0 8.0 0.00 0.00 0.00 62 1014.3
20260903154813 92 217 3.0 5.0 0.00 0.00 0.00 61 1014.7
20260903154310 91 319 3.0 6.0 0.00 0.00 0.00 63 1014.6
20260903153805 90 306 3.0 7.0 0.00 0.00 0.00 63 1014.7
20260903153301 91 296 3.0 8.0 0.00 0.00 0.00 63 1014.6
20260903152757 91 169 9.0 9.0 0.00 0.00 0.00 63 1014.7
20260903152252 90 198 3.0 6.0 0.00 0.00 0.00 65 1014.6
20260903151752 90 237 2.0 5.0 0.00 0.00 0.00 66 1014.7
20260903151247 89 222 4.0 6.0 0.00 0.00 0.00 68 1014.6
20260903150748 89 297 1.0 5.0 0.00 0.00 0.00 69 1014.7
20260903150242 87 237 3.0 5.0 0.00 0.00 0.00 71 1014.5
20260903145738 88 245 3.0 6.0 0.00 0.00 0.00 70 1014.6
20260903145233 86 248 4.0 8.0 0.00 0.00 0.00 73 1014.6
20260903144731 86 233 4.0 5.0 0.00 0.00 0.00 74 1014.5
20260903144227 85 243 3.0 5.0 0.00 0.00 0.00 75 1014.5
20260903143723 85 246 4.0 7.0 0.00 0.00 0.00 75 1014.6
20260903143219 86 215 5.0 5.0 0.00 0.00 0.00 74 1014.9
20260903142715 86 224 3.0 7.0 0.00 0.00 0.00 74 1014.7
20260903142211 86 284 3.0 7.0 0.00 0.00 0.00 74 1014.7
20260903141706 87 292 4.0 5.0 0.00 0.00 0.00 74 1014.9
20260903141201 86 242 4.0 8.0 0.00 0.00 0.00 75 1014.7
20260903140657 86 269 1.0 6.0 0.00 0.00 0.00 76 1014.7
20260903140152 86 249 3.0 4.0 0.00 0.00 0.00 76 1014.6
20260903135647 84 284 5.0 5.0 0.00 0.00 0.00 77 1014.4
20260903135142 84 263 4.0 5.0 0.00 0.00 0.00 78 1014.7
20260903134641 84 284 1.0 5.0 0.00 0.00 0.00 79 1014.6
20260903134137 85 233 3.0 5.0 0.00 0.00 0.00 77 1014.9
20260903133635 85 266 3.0 4.0 0.00 0.00 0.00 77 1014.9
20260903133130 85 265 2.0 5.0 0.00 0.00 0.00 77 1014.7
20260903132625 85 217 4.0 4.0 0.00 0.00 0.00 77 1015.1
20260903132119 84 31 2.0 4.0 0.00 0.00 0.00 80 1014.9
20260903131614 83 262 2.0 6.0 0.00 0.00 0.00 81 1014.9
20260903131113 82 315 2.0 5.0 0.00 0.00 0.00 82 1015.0
20260903130609 82 237 3.0 3.0 0.00 0.00 0.00 83 1014.9
20260903125601 81 277 3.0 4.0 0.00 0.00 0.00 85 1014.9
20260903125056 81 202 2.0 5.0 0.00 0.00 0.00 85 1014.6
20260903124551 81 233 2.0 5.0 0.00 0.00 0.00 85 1014.6
20260903124051 81 289 3.0 3.0 0.00 0.00 0.00 85 1014.6
20260903123549 81 3 0.0 5.0 0.00 0.00 0.00 85 1014.5
20260903123049 81 289 2.0 3.0 0.00 0.00 0.00 85 1014.5
20260903122543 81 245 1.0 3.0 0.00 0.00 0.00 85 1014.3
20260903122043 81 320 2.0 5.0 0.00 0.00 0.00 85 1014.3
20260903121537 81 259 5.0 6.0 0.00 0.00 0.00 85 1014.4
20260903121033 81 31 0.0 3.0 0.00 0.00 0.00 85 1014.1
20260903120532 81 96 1.0 3.0 0.00 0.00 0.00 85 1014.2
20260903120027 81 161 3.0 7.0 0.00 0.00 0.00 85 1014.3
20260903115525 81 289 2.0 3.0 0.00 0.00 0.00 85 1014.3
20260903115020 81 171 3.0 4.0 0.00 0.00 0.00 85 1014.1
20260903114515 81 250 0.0 6.0 0.00 0.00 0.00 85 1014.2
20260903114011 81 280 3.0 3.0 0.00 0.00 0.00 85 1014.3
20260903113506 81 344 0.0 5.0 0.00 0.00 0.00 85 1014.1
20260903113002 81 288 0.0 3.0 0.00 0.00 0.00 86 1014.3
20260903112458 81 60 1.0 5.0 0.00 0.00 0.00 86 1014.0
20260903111957 81 302 0.0 3.0 0.00 0.00 0.00 86 1014.0
20260903111451 81 310 2.0 3.0 0.00 0.00 0.00 86 1014.1
20260903110947 81 245 0.0 3.0 0.00 0.00 0.00 86 1014.2
20260903110443 81 283 2.0 4.0 0.00 0.00 0.00 86 1014.3
20260903105937 81 299 3.0 6.0 0.00 0.00 0.00 86 1014.1
20260903105433 81 16 1.0 3.0 0.00 0.00 0.00 87 1014.1
20260903104932 81 12 0.0 3.0 0.00 0.00 0.00 87 1013.9
20260903104432 81 261 1.0 5.0 0.00 0.00 0.00 86 1014.1
20260903103929 81 344 0.0 5.0 0.00 0.00 0.00 86 1013.9
20260903103424 81 241 2.0 4.0 0.00 0.00 0.00 86 1014.2
20260903102920 81 83 2.0 5.0 0.00 0.00 0.00 86 1013.9
20260903102415 81 134 1.0 3.0 0.00 0.00 0.00 86 1013.8
20260903101914 81 73 2.0 3.0 0.00 0.00 0.00 87 1014.1
20260903101409 81 314 0.0 2.0 0.00 0.00 0.00 86 1014.1
20260903100904 81 29 2.0 3.0 0.00 0.00 0.00 86 1014.0
20260903100359 81 348 2.0 4.0 0.00 0.00 0.00 87 1014.1
20260903095856 81 243 3.0 3.0 0.00 0.00 0.00 87 1014.1
20260903095351 81 309 0.0 4.0 0.00 0.00 0.00 87 1014.1
20260903094846 81 254 0.0 4.0 0.00 0.00 0.00 87 1014.2
20260903094345 81 222 0.0 3.0 0.00 0.00 0.00 86 1014.0
20260903093842 81 226 3.0 4.0 0.00 0.00 0.00 86 1014.1
20260903093337 81 206 3.0 5.0 0.00 0.00 0.00 86 1014.2
20260903092832 81 274 1.0 5.0 0.00 0.00 0.00 86 1014.1
20260903092326 81 175 0.0 3.0 0.00 0.00 0.00 86 1014.2
20260903091825 81 197 0.0 3.0 0.00 0.00 0.00 86 1014.1
20260903091319 81 341 0.0 4.0 0.00 0.00 0.00 87 1014.2
20260903090815 81 215 0.0 3.0 0.00 0.00 0.00 87 1014.1
20260903090315 81 298 1.0 3.0 0.00 0.00 0.00 87 1014.1
20260903085813 81 310 0.0 3.0 0.00 0.00 0.00 87 1014.0
20260903085307 81 168 1.0 3.0 0.00 0.00 0.00 87 1014.3
20260903084806 81 277 1.0 5.0 0.00 0.00 0.00 87 1014.1
20260903084300 81 261 0.0 3.0 0.00 0.00 0.00 87 1014.2
20260903083755 81 269 0.0 3.0 0.00 0.00 0.00 87 1014.3
20260903083250 81 205 3.0 4.0 0.00 0.00 0.00 86 1014.2
20260903082749 81 196 2.0 4.0 0.00 0.00 0.00 86 1014.4
20260903082245 81 284 1.0 3.0 0.00 0.00 0.00 86 1014.4
20260903081745 81 289 3.0 4.0 0.00 0.00 0.00 86 1014.3
20260903081241 81 333 2.0 5.0 0.00 0.00 0.00 86 1014.5
20260903080737 81 222 0.0 5.0 0.00 0.00 0.00 86 1014.4
20260903080234 81 198 1.0 5.0 0.00 0.00 0.00 86 1014.1
20260903075734 81 196 3.0 6.0 0.00 0.00 0.00 86 1014.4
20260903075229 81 323 0.0 2.0 0.00 0.00 0.00 86 1014.3
20260903074728 81 289 2.0 2.0 0.00 0.00 0.00 85 1014.5
20260903074223 81 196 0.0 3.0 0.00 0.00 0.00 86 1014.5
20260903073718 81 313 1.0 2.0 0.00 0.00 0.00 85 1014.5
20260903073214 81 296 1.0 2.0 0.00 0.00 0.00 85 1014.5
20260903072709 81 301 1.0 3.0 0.00 0.00 0.00 85 1014.7
20260903072206 81 302 1.0 3.0 0.00 0.00 0.00 85 1014.5
20260903071702 81 282 0.0 3.0 0.00 0.00 0.00 85 1014.6
20260903071157 81 178 1.0 4.0 0.00 0.00 0.00 84 1014.7
20260903070656 81 268 1.0 3.0 0.00 0.00 0.00 84 1014.6
20260903070153 80 274 1.0 3.0 0.00 0.00 0.00 84 1014.5
20260903065647 81 180 1.0 3.0 0.00 0.00 0.00 84 1014.6
20260903065141 81 296 2.0 4.0 0.00 0.00 0.00 83 1014.9
20260903064640 81 230 3.0 4.0 0.00 0.00 0.00 83 1014.7
20260903064136 81 245 1.0 3.0 0.00 0.00 0.00 83 1014.6
20260903063632 81 278 1.0 3.0 0.00 0.00 0.00 82 1014.7
20260903063132 81 203 1.0 5.0 0.00 0.00 0.00 82 1014.6
20260903062628 81 201 2.0 3.0 0.00 0.00 0.00 82 1014.3
20260903062123 81 235 0.0 4.0 0.00 0.00 0.00 81 1014.3
20260903061618 81 285 0.0 2.0 0.00 0.00 0.00 81 1015.0
20260903061118 81 229 0.0 2.0 0.00 0.00 0.00 81 1014.7
20260903060613 82 205 0.0 2.0 0.00 0.00 0.00 80 1014.9
20260903060108 82 280 2.0 2.0 0.00 0.00 0.00 80 1014.6
20260903055606 82 273 1.0 3.0 0.00 0.00 0.00 80 1014.5
20260903055104 82 196 1.0 3.0 0.00 0.00 0.00 79 1014.9
20260903054559 82 179 2.0 5.0 0.00 0.00 0.00 79 1014.9
20260903054055 82 12 0.0 3.0 0.00 0.00 0.00 78 1014.7
20260903053550 82 175 1.0 3.0 0.00 0.00 0.00 77 1015.0
20260903053047 83 149 2.0 5.0 0.00 0.00 0.00 76 1015.0
20260903052542 83 117 3.0 5.0 0.00 0.00 0.00 75 1015.1
20260903052038 83 140 3.0 6.0 0.00 0.00 0.00 74 1015.2
20260903051537 83 182 0.0 5.0 0.00 0.00 0.00 73 1014.9
20260903051033 84 200 1.0 3.0 0.00 0.00 0.00 72 1014.6
20260903050532 84 142 2.0 11.0 0.00 0.00 0.00 71 1014.4
20260903050028 84 144 4.0 5.0 0.00 0.00 0.00 70 1014.6
20260903045527 84 240 2.0 3.0 0.00 0.00 0.00 69 1014.7
20260903045024 84 153 3.0 4.0 0.00 0.00 0.00 67 1014.3
20260903044520 84 294 2.0 3.0 0.00 0.00 0.00 67 1014.6
20260903044015 85 130 0.0 5.0 0.00 0.00 0.00 65 1014.3
20260903043511 85 139 1.0 5.0 0.00 0.00 0.00 64 1014.6
20260903043010 85 110 3.0 5.0 0.00 0.00 0.00 63 1014.3
20260903042504 86 138 3.0 8.0 0.00 0.00 0.00 62 1014.2
20260903042000 86 134 0.0 5.0 0.00 0.00 0.00 61 1014.1
20260903041457 87 89 0.0 9.0 0.00 0.00 0.00 59 1014.2
20260903040952 87 188 2.0 6.0 0.00 0.00 0.00 57 1013.9
20260903040450 88 168 3.0 7.0 0.00 0.00 0.00 56 1013.9
20260903035948 88 303 1.0 6.0 0.00 0.00 0.00 56 1014.0
20260903035442 88 235 2.0 7.0 0.00 0.00 0.00 54 1014.2
20260903034937 89 108 1.0 7.0 0.00 0.00 0.00 54 1013.9
20260903034432 89 133 6.0 8.0 0.00 0.00 0.00 56 1013.8
20260903033927 89 112 9.0 10.0 0.00 0.00 0.00 58 1013.8
20260903033423 89 149 5.0 9.0 0.00 0.00 0.00 59 1013.9
20260903032918 90 145 5.0 5.0 0.00 0.00 0.00 59 1013.6
20260903032413 90 98 3.0 4.0 0.00 0.00 0.00 59 1013.6
20260903031908 90 115 1.0 4.0 0.00 0.00 0.00 58 1013.6
20260903031407 90 123 2.0 4.0 0.00 0.00 0.00 57 1013.5
20260903030903 90 146 0.0 2.0 0.00 0.00 0.00 55 1013.3
20260903030359 91 174 0.0 4.0 0.00 0.00 0.00 55 1013.0
20260903025854 91 115 3.0 4.0 0.00 0.00 0.00 54 1012.9
20260903025349 91 161 1.0 5.0 0.00 0.00 0.00 52 1012.9
20260903024844 92 124 3.0 9.0 0.00 0.00 0.00 50 1012.9
20260903024338 91 141 0.0 0.0 0.00 0.00 0.00 51 1012.6
20260903023833 91 309 0.0 0.0 0.00 0.00 0.00 51 1012.5
20260903023329 91 309 0.0 0.0 0.00 0.00 0.00 51 1012.5
20260903022824 91 269 0.0 0.0 0.00 0.00 0.00 51 1012.5
20260903022323 90 309 0.0 0.0 0.00 0.00 0.00 51 1012.2
20260903021817 91 309 0.0 1.0 0.00 0.00 0.00 50 1012.2
20260903021313 91 315 0.0 0.0 0.00 0.00 0.00 50 1012.2
20260903020812 92 284 0.0 0.0 0.00 0.00 0.00 49 1012.1
20260903020307 92 186 0.0 1.0 0.00 0.00 0.00 49 1011.7
20260903015803 92 76 0.0 2.0 0.00 0.00 0.00 49 1012.1
20260903015258 93 130 0.0 2.0 0.00 0.00 0.00 49 1011.8
20260903014753 93 133 0.0 1.0 0.00 0.00 0.00 49 1011.8
20260903014253 93 129 0.0 1.0 0.00 0.00 0.00 49 1011.8
20260903013748 93 297 0.0 2.0 0.00 0.00 0.00 48 1011.7
20260903013247 93 226 1.0 1.0 0.00 0.00 0.00 48 1011.8
20260903012745 93 153 0.0 2.0 0.00 0.00 0.00 48 1011.8
20260903012240 93 337 0.0 3.0 0.00 0.00 0.00 48 1011.8
20260903011739 93 327 2.0 3.0 0.00 0.00 0.00 48 1011.6
20260903011233 94 298 2.0 4.0 0.00 0.00 0.00 47 1011.6
20260903010730 94 315 1.0 2.0 0.00 0.00 0.00 46 1011.5
20260903010229 94 302 3.0 3.0 0.00 0.00 0.00 46 1011.5
20260903005728 94 250 1.0 2.0 0.00 0.00 0.00 45 1011.7
20260903005223 95 306 0.0 3.0 0.00 0.00 0.00 45 1011.7
20260903004719 95 215 0.0 3.0 0.00 0.00 0.00 44 1011.5
20260903004214 96 315 4.0 4.0 0.00 0.00 0.00 42 1011.5
20260903003710 97 273 1.0 2.0 0.00 0.00 0.00 40 1011.4
20260903003205 97 277 2.0 3.0 0.00 0.00 0.00 38 1011.5
20260903002700 98 281 2.0 3.0 0.00 0.00 0.00 38 1011.3
20260903002154 98 278 2.0 3.0 0.00 0.00 0.00 38 1011.3
20260903001649 99 259 3.0 3.0 0.00 0.00 0.00 36 1011.4
20260903001143 100 275 2.0 3.0 0.00 0.00 0.00 36 1011.4
20260903000639 101 262 3.0 5.0 0.00 0.00 0.00 35 1011.8
20260903000138 103 269 2.0 3.0 0.00 0.00 0.00 34 1011.4
20260902235637 103 267 2.0 4.0 0.00 0.00 0.00 32 1011.6